TimeCDT,TemperatureF,Dew PointF,Humidity,Sea Level PressureIn,VisibilityMPH,Wind Direction,Wind SpeedMPH,Gust SpeedMPH,PrecipitationIn,Events,Conditions,WindDirDegrees,DateUTC
12:54 AM,37.0,25.0,62,30.12,10.0,Calm,Calm,-,N/A,,Clear,0,2011-10-30 05:54:00
1:54 AM,35.1,26.1,70,30.11,10.0,SSE,3.5,-,N/A,,Partly Cloudy,150,2011-10-30 06:54:00
2:54 AM,36.0,25.0,64,30.10,10.0,SSE,4.6,-,N/A,,Mostly Cloudy,150,2011-10-30 07:54:00
3:54 AM,37.9,27.0,65,30.09,10.0,SSE,9.2,-,N/A,,Mostly Cloudy,160,2011-10-30 08:54:00
4:54 AM,39.9,28.0,63,30.07,10.0,SSE,10.4,-,N/A,,Overcast,160,2011-10-30 09:54:00
5:54 AM,42.1,27.0,55,30.06,10.0,SSE,13.8,23.0,N/A,,Overcast,150,2011-10-30 10:54:00
6:54 AM,42.1,26.1,53,30.03,10.0,SSE,12.7,-,N/A,,Overcast,150,2011-10-30 11:54:00
7:54 AM,44.1,26.1,49,30.03,10.0,South,17.3,-,N/A,,Overcast,170,2011-10-30 12:54:00
8:54 AM,44.1,28.0,53,30.03,10.0,South,18.4,-,N/A,,Mostly Cloudy,170,2011-10-30 13:54:00
9:54 AM,48.0,30.9,52,30.01,10.0,South,11.5,-,N/A,,Mostly Cloudy,170,2011-10-30 14:54:00
10:54 AM,48.0,30.9,52,30.00,10.0,South,16.1,-,N/A,,Mostly Cloudy,180,2011-10-30 15:54:00
11:54 AM,48.9,34.0,56,29.97,10.0,South,18.4,-,0.00,,Overcast,180,2011-10-30 16:54:00
12:54 PM,52.0,36.0,54,29.93,10.0,South,19.6,27.6,0.00,Rain,Light Rain,180,2011-10-30 17:54:00
1:54 PM,55.4,37.4,51,29.90,10.0,SSW,26.5,33.4,N/A,,Overcast,200,2011-10-30 18:54:00
2:54 PM,51.1,39.9,66,29.91,10.0,SSW,21.9,28.8,0.00,Rain,Light Rain,210,2011-10-30 19:54:00
3:54 PM,46.9,43.0,86,29.92,7.0,South,16.1,-,0.04,Rain,Light Rain,190,2011-10-30 20:54:00
4:54 PM,46.0,43.0,89,29.93,10.0,South,12.7,-,0.01,Rain,Light Rain,190,2011-10-30 21:54:00
5:54 PM,46.4,42.8,87,29.92,10.0,South,10.4,-,N/A,Rain,Light Rain,190,2011-10-30 22:54:00
6:54 PM,46.9,43.0,86,29.95,10.0,SSW,9.2,-,0.00,,Overcast,200,2011-10-30 23:54:00
7:54 PM,46.9,43.0,86,29.96,10.0,SSW,9.2,-,N/A,,Overcast,200,2011-10-31 00:54:00
8:54 PM,46.0,42.1,86,29.97,10.0,SSW,4.6,-,N/A,,Overcast,210,2011-10-31 01:54:00
9:54 PM,43.0,39.9,89,29.98,10.0,South,3.5,-,N/A,,Mostly Cloudy,190,2011-10-31 02:54:00
10:54 PM,41.0,39.0,93,29.98,7.0,South,3.5,-,N/A,Fog,Patches of Fog,180,2011-10-31 03:54:00
11:26 PM,39.2,37.4,93,29.96,1.5,South,4.6,-,N/A,Fog,Patches of Fog,170,2011-10-31 04:26:00
11:54 PM,39.0,37.9,96,29.98,1.5,South,3.5,-,N/A,Fog,Patches of Fog,190,2011-10-31 04:54:00